This is the latest recevied weather packets stored in our database for station/object SP9UVG-13. If no packets are shown the sender has not sent any weather packets the latest 10 day(s).
| Time | Temp. | Humidity | Pressure | Rain* | Wind** | Luminosity | Snow |
|---|---|---|---|---|---|---|---|
| 1787732057 | 21.11° C | 61% | 1006 hPa | 0 mm | - | - | - |
| 1787731516 | 21.67° C | 63% | 1006 hPa | 0 mm | - | - | - |
| 1787730976 | 21.11° C | 65% | 1005.9 hPa | 0 mm | - | - | - |
| 1787730435 | 20° C | 66% | 1005.8 hPa | 0 mm | - | - | - |
| 1787729895 | 20.56° C | 67% | 1005.8 hPa | 0 mm | - | - | - |
| 1787729354 | 20.56° C | 68% | 1005.8 hPa | 0 mm | - | - | - |
| 1787728814 | 20° C | 70% | 1005.7 hPa | 0 mm | - | - | - |
| 1787728273 | 18.89° C | 75% | 1005.6 hPa | 0 mm | - | - | - |
| 1787727733 | 18.33° C | 76% | 1005.4 hPa | 0 mm | - | - | - |
| 1787727192 | 17.78° C | 77% | 1005.4 hPa | 0 mm | - | - | - |
| 1787726652 | 17.22° C | 78% | 1005.4 hPa | 0 mm | - | - | - |
| 1787726111 | 17.22° C | 79% | 1005.4 hPa | 0 mm | - | - | - |
| 1787725571 | 17.22° C | 80% | 1005.5 hPa | 0 mm | - | - | - |
| 1787725030 | 16.67° C | 82% | 1005.4 hPa | 0 mm | - | - | - |
| 1787724490 | 16.11° C | 85% | 1005.2 hPa | 0 mm | - | - | - |
| 1787723949 | 15.56° C | 85% | 1005.3 hPa | 0 mm | - | - | - |
| 1787723409 | 15.56° C | 86% | 1005.2 hPa | 0 mm | - | - | - |
| 1787722868 | 15° C | 87% | 1005.2 hPa | 0 mm | - | - | - |
| 1787722327 | 15° C | 88% | 1005.1 hPa | 0 mm | - | - | - |
| 1787721787 | 14.44° C | 89% | 1005.1 hPa | 0 mm | - | - | - |
| 1787721246 | 13.89° C | 89% | 1005.1 hPa | 0 mm | - | - | - |
| 1787720706 | 13.89° C | 90% | 1005.1 hPa | 0 mm | - | - | - |
| 1787720165 | 13.89° C | 90% | 1005 hPa | 0 mm | - | - | - |
| 1787719625 | 13.33° C | 91% | 1005.1 hPa | 0 mm | - | - | - |
| 1787719084 | 13.33° C | 91% | 1005 hPa | 0 mm | - | - | - |
* Rain latest hour (hover to see other rain measurements)
** Current wind speed in m/s (hover to see current wind gust speed)